Location: *
(38.9800°N, 16.0500°E)
Time: 07:54:44
(UTC+00:00)

Cosmos 1689 Rocket - Pass Details

Date: 07 April 2020
Orbit: 368 x 383 km, 97.5° (Epoch: 25 May)

Event Time Altitude Azimuth Distance (km) Brightness Sun altitude
Rises 03:14:54 0° 170° (S) 2,257 5.8 -15.0°
Reaches altitude 10° 03:16:51 10° 172° (S) 1,407 4.8 -14.7°
Maximum altitude 03:19:51 76° 258° (WSW) 402 1.9 -14.1°
Drops below altitude 10° 03:22:52 10° 345° (NNW) 1,415 5.0 -13.6°
Sets 03:24:50 0° 347° (NNW) 2,272 6.1 -13.2°
